星链-6248 (STARLINK-6248 )

导读

STARLINK-6248是美国SpaceX公司星链(Starlink)卫星互联网星座的一员,于2023年6月22日发射入轨。星链项目计划在近地轨道部署数万颗卫星,旨在为全球偏远地区提供低延迟高速宽带互联网服务,截至2023年10月已有超5000颗星链卫星入轨。STARLINK-6248属于星链第二代卫星,配备激光星间链路,可实现高速星际传输,助力星座完成全球连续覆盖,为用户提供稳定互联网接入服务,推动卫星互联网商业化发展。

基本信息
目录编号:
57082
目录名称:
STARLINK-6248
国际标识:
2023-088AL
轨道中心:
EARTH
卫星名称:
星链-6248
卫星全名:
星链-6248 (STARLINK-6248 )
卫星状态:
在轨 (已飞行1088 天)
发射日期:
2023-06-22 UTC
国别 :
美国 (US)
星等 :
--
轨道信息
数据来源 国际轨道数据 AOE轨道数据
星历时间 2026-06-14T22:07:45+0800
6小时前
查看轨道信息
2026-06-08T07:00:00+0800
6天前
查看轨道信息
半长轴 6861.173km 6861.168km
偏心率 0.0001339 0.0001699
轨道倾角 42.998° 43.004°
近地点辐角 289.953° 273.140°
升交点赤经 268.561° 306.009°
平近点角 70.118° 301.882°
近地点 482.117km 481.865km
远地点 483.955km 484.197km
周期 94.266分钟 94.266分钟
每日圈数 15.275847 15.275862
详细信息
固有亮度:
5
最大亮度:
2.4
卫星平台:
Starlink v1.5
覆盖范围:
全球
运营商:
太空探索技术公司
运营商所在国:
美国
制造商(研发单位):
太空探索技术公司
制造商所在国:
美国
使用方式:
暂无
卫星简介
星链(Starlink)计划是由太空探索技术公司(SpaceX)提出的一个巨型低轨卫星互联网星座项目,计划在2019年至2024年间在太空搭建由约1.2万颗卫星组成的“星链”网络,其中1584颗将部署在地球上空550千米处的近地轨道,并从2020年开始工作。该卫星仍在工作。
2D轨道图
3D轨道图
轨道高度分析图
轨道倾角分析图
轨道综合分析图
查看轨道综合分析图